Location: Newark
(7.1028°S, 35.3258°W)
Time: 06:10:03
(UTC+00:00)

Vanguard 3 - Pass Details

Date: 22 February 2020
Orbit: 508 x 3263 km, 33.4° (Epoch: 07 April)

Event Time Altitude Azimuth Distance (km) Brightness Sun altitude
Rises 00:25:10 0° 262° (W) 7,188 12.5 -53.2°
Reaches altitude 10° 00:31:52 10° 250° (WSW) 5,972 11.9 -54.7°
Maximum altitude 00:45:03 25° 202° (SSW) 4,077 10.8 -57.5°
Enters shadow 00:50:13 20° 174° (S) 3,934 10.6 -58.6°
Drops below altitude 10° 00:54:39 10° 152° (SSE) 4,258 - -59.5°
Sets 00:58:25 0° 138° (SE) 4,828 - -60.3°
